Wilbur Observed Data For Previous 48 Hours

Caption
Day and Hour Reservoir Elevation (behind dam)* Tailwater Elevation (below dam)* Average Hourly Discharge*
11/13/2019 2 AM EST 1,647.29 1,581.00 235
11/13/2019 3 AM EST 1,646.98 1,581.00 232
11/13/2019 4 AM EST 1,646.66 1,581.00 230
11/13/2019 5 AM EST 1,646.35 1,581.00 226
11/13/2019 6 AM EST 1,647.33 1,581.00 229
11/13/2019 7 AM EST 1,647.68 1,585.00 1,781
11/13/2019 8 AM EST 1,648.29 1,585.00 1,881
11/13/2019 9 AM EST 1,648.58 1,585.00 1,892
11/13/2019 10 AM EST 1,647.72 1,585.00 1,880
11/13/2019 11 AM EST 1,648.87 1,583.00 296
11/13/2019 12 PM EST 1,648.61 1,581.00 245
11/13/2019 1 PM EST 1,648.32 1,581.00 245
11/13/2019 2 PM EST 1,648.01 1,581.00 241
11/13/2019 3 PM EST 1,647.70 1,581.00 240
11/13/2019 4 PM EST 1,647.38 1,581.00 235
11/13/2019 5 PM EST 1,647.08 1,581.00 234
11/13/2019 6 PM EST 1,646.75 1,581.00 230
11/13/2019 7 PM EST 1,646.44 1,581.00 227
11/13/2019 8 PM EST 1,646.10 1,581.00 225
11/13/2019 9 PM EST 1,647.29 1,581.00 228
11/13/2019 10 PM EST 1,648.50 1,581.00 239
11/13/2019 11 PM EST 1,648.27 1,581.00 245
11/14/2019 12 AM EST 1,647.98 1,581.00 240
11/14/2019 1 AM EST 1,647.67 1,581.00 239
11/14/2019 2 AM EST 1,647.36 1,581.00 235
11/14/2019 3 AM EST 1,647.04 1,581.00 233
11/14/2019 4 AM EST 1,646.73 1,581.00 230
11/14/2019 5 AM EST 1,646.42 1,581.00 227
11/14/2019 6 AM EST 1,647.51 1,581.00 231
11/14/2019 7 AM EST 1,647.10 1,585.00 1,692
11/14/2019 8 AM EST 1,646.67 1,585.00 1,743
11/14/2019 9 AM EST 1,646.20 1,585.00 1,738
11/14/2019 10 AM EST 1,647.70 1,585.00 271
11/14/2019 11 AM EST 1,647.50 1,581.00 235
11/14/2019 12 PM EST 1,647.17 1,581.00 235
11/14/2019 1 PM EST 1,646.82 1,581.00 230
11/14/2019 2 PM EST 1,646.47 1,581.00 228
11/14/2019 3 PM EST 1,646.10 1,581.00 225
11/14/2019 4 PM EST 1,645.75 1,581.00 220
11/14/2019 5 PM EST 1,645.40 1,581.00 218
11/14/2019 6 PM EST 1,645.03 1,581.00 215
11/14/2019 7 PM EST 1,646.23 1,581.00 218
11/14/2019 8 PM EST 1,647.49 1,581.00 230
11/14/2019 9 PM EST 1,648.64 1,581.00 241
11/14/2019 10 PM EST 1,648.36 1,581.00 245
11/14/2019 11 PM EST 1,648.02 1,581.00 241
11/15/2019 12 AM EST 1,647.70 1,581.00 240
11/15/2019 1 AM EST 1,647.35 1,581.00 235
11/15/2019 2 AM EST 1,646.98 1,581.00 233
11/15/2019 3 AM EST 1,646.64 1,581.00 230
11/15/2019 4 AM EST 1,646.28 1,581.00 225
11/15/2019 5 AM EST 1,645.94 1,581.00 223
11/15/2019 6 AM EST 1,645.58 1,581.00 220
11/15/2019 7 AM EST 1,645.24 1,581.00 215
11/15/2019 8 AM EST 1,646.43 1,581.00 220
11/15/2019 9 AM EST 1,647.65 1,585.00 231
11/15/2019 10 AM EST 1,648.23 1,585.00 239
11/15/2019 11 AM EST 1,647.84 1,585.00 240
11/15/2019 12 PM EST 1,647.47 1,585.00 237
11/15/2019 1 PM EST 1,647.10 1,585.00 234
11/15/2019 2 PM EST 1,646.77 1,585.00 230

Elevations are in feet above sea level. Discharges are in cubic feet per second and are reported at the end of the hour.